Погода в Брянском

Россия / Липецкая область     52°09′30″N   40°32′02″E
темп.,
°C
ветер,
м/с
пор.,
м/с
влажн.,
%
обл.,
%
осадки,
мм/ч
давл.,
гПа
погр.,
м
12 апреля, пн
пн1200:00+7св51086100 0.0 1029400
03:00+6св5995100 0.0 1028275
06:00+6всв51196100 0.0 1028268
09:00+10всв61078100 0.0 1028363
12:00+16в695979 0.0 1027655
15:00+21вюв693799 0.0 10261367
18:00+18вюв51148100 0.0 1026280
21:00+14вюв5145935 0.0 1027263
13 апреля, вт
вт1300:00+11вюв4126697 0.0 1027188
03:00+9вюв4127272 0.0 1027194
06:00+8вюв4116683 0.0 1027183
09:00+14юв594930 0.0 1027371
12:00+19юв683420 0.0 10261035
15:00+21юв7930100 0.0 10251918
18:00+18юв510385 0.0 1025393
21:00+14вюв513511 0.0 1025267
14 апреля, ср
ср1400:00+11вюв4126068 0.0 1025203
03:00+10вюв41166100 0.0 1024203
06:00+9вюв411710 0.0 1023206
09:00+14юв6104937 0.0 1023448
12:00+19юв68348 0.0 10211128
15:00+20юв782952 0.0 10202001
18:00+18юв593993 0.0 1019383
21:00+14вюв51253100 0.0 1019232
15 апреля, чт
чт1500:00+12юв41060100 0.0 1018192
03:00+10юв376999 0.0 1018119
06:00+9юв3572100 0.0 101889
09:00+14юв4552100 0.0 1017322
12:00+18вюв4540100 0.0 1016877
15:00+20вюв5637100 0.0 10151779
18:00+18юв2347100 0.0 101479
21:00+15вюв3447100 0.0 101360
16 апреля, пт
пт1600:00+14ю2252100 0.0 101318
03:00+13в355598 0.0 101384
06:00+12св476797 0.1 1012166
09:00+15всв795998 0.1 1012696
12:00+18всв44455 0.0 10111465
15:00+20юв3342100 0.0 10101945
18:00+15сз0668100 0.7 1011598
21:00+11св81385100 4.3 1012790